{"data":{"norad_id":66005,"epoch":"2026-09-20T05:43:39.058464Z","epoch_age_seconds":125597,"freshness":"FRESH","line1":"1 66005U 25232A   26263.23864651  .00006108  00000+0  19177-3 0  9997","line2":"2 66005  53.1601 276.5850 0001034  79.3445 280.7674 15.34399267 53267","mean_motion":15.34399267,"eccentricity":0.0001034,"inclination_deg":53.1601,"raan_deg":276.585,"arg_perigee_deg":79.3445,"mean_anomaly_deg":280.7674,"bstar":0.00019177,"rev_number":5326,"period_min":93.847802913477,"perigee_km":461.99807573234,"apogee_km":463.41276194455,"semimajor_km":6840.8424188384,"source":"CELESTRAK","updated_at":"2026-09-21T09:00:35.768094Z"}}